CW0364 Weather Reports


time (UTC)temp
F
wind
direction
speed
knots
gust
knots
rain 1hr
in
rain 24hr
in
rain mn
in
humidity
%
barometer
mb
20260505094217 65 154 0.9 2.6 0.00 0.00 0.00 81 1006.2
20260505093003 65 143 2.6 7.0 0.00 0.00 0.00 81 1006.2
20260505092003 64 186 0.9 2.6 0.00 0.00 0.00 80 1006.4
20260505091003 64 183 0.9 3.5 0.00 0.00 0.00 79 1006.4
20260505090004 64 148 0.9 3.5 0.00 0.00 0.00 79 1006.2
20260505085217 64 154 1.7 3.5 0.00 0.00 0.00 79 1006.2
20260505084003 64 146 2.6 7.0 0.00 0.00 0.00 79 1006.0
20260505083003 64 151 1.7 5.2 0.00 0.00 0.00 79 1006.0
20260505082003 64 152 2.6 7.0 0.00 0.00 0.00 78 1006.2
20260505081003 64 148 2.6 7.0 0.00 0.00 0.00 78 1006.2
20260505080216 64 150 3.5 8.7 0.00 0.00 0.00 77 1006.5
20260505075003 64 140 4.3 11.3 0.00 0.00 0.00 76 1006.3
20260505074003 64 144 2.6 6.1 0.00 0.00 0.00 77 1007.0
20260505073003 64 137 3.5 6.1 0.00 0.00 0.00 76 1006.6
20260505072218 64 141 2.6 6.1 0.00 0.00 0.00 76 1007.2
20260505071003 64 142 2.6 7.0 0.00 0.00 0.00 75 1007.4
20260505070003 65 143 3.5 7.0 0.00 0.00 0.00 75 1007.6
20260505065003 65 149 3.5 7.8 0.00 0.00 0.00 74 1007.7
20260505064003 65 146 3.5 7.8 0.00 0.00 0.00 75 1007.9
20260505063003 65 146 3.5 8.7 0.00 0.00 0.00 74 1007.9
20260505062003 65 140 4.3 7.8 0.00 0.00 0.00 74 1008.0
20260505061003 65 144 3.5 7.0 0.00 0.00 0.00 75 1007.9
20260505060003 65 145 3.5 6.1 0.00 0.00 0.00 74 1007.9
20260505055218 65 141 3.5 8.7 0.00 0.00 0.00 74 1008.2
20260505054003 65 138 3.5 7.0 0.00 0.00 0.00 74 1008.3
20260505053003 65 137 3.5 6.1 0.00 0.00 0.00 73 1008.6
20260505052003 65 138 3.5 6.1 0.00 0.00 0.00 73 1008.6
20260505051003 66 141 2.6 6.1 0.00 0.00 0.00 72 1008.7
20260505041003 67 145 2.6 5.2 0.00 0.00 0.00 70 1008.9
20260505040004 67 144 1.7 3.5 0.00 0.00 0.00 69 1008.9
20260505035217 68 142 1.7 3.5 0.00 0.00 0.00 69 1009.1
20260505034003 68 149 2.6 5.2 0.00 0.00 0.00 68 1009.2
20260505033217 68 148 1.7 3.5 0.00 0.00 0.00 68 1009.8
20260505032003 69 148 1.7 3.5 0.00 0.00 0.00 67 1009.8
20260505031003 69 147 1.7 5.2 0.00 0.00 0.00 67 1009.5
20260505030003 69 170 1.7 2.6 0.00 0.00 0.00 68 1009.3
20260505025004 69 164 1.7 3.5 0.00 0.00 0.00 67 1009.0
20260505024003 69 170 1.7 3.5 0.00 0.00 0.00 67 1008.4
20260505023003 69 168 1.7 5.2 0.00 0.00 0.00 67 1008.4
20260505022003 69 168 1.7 3.5 0.00 0.00 0.00 67 1008.3
20260505021218 69 169 1.7 3.5 0.00 0.00 0.00 67 1008.3
20260505020218 69 173 1.7 3.5 0.00 0.00 0.00 67 1008.0
20260505015003 70 170 1.7 3.5 0.00 0.00 0.00 65 1008.0
20260505014218 70 165 1.7 2.6 0.00 0.00 0.00 65 1007.8
20260505013003 70 169 1.7 5.2 0.00 0.00 0.00 65 1007.6
20260505012218 70 177 1.7 7.0 0.00 0.00 0.00 66 1007.7
20260505011218 70 177 1.7 3.5 0.00 0.00 0.00 65 1007.7
20260505010004 71 171 1.7 5.2 0.00 0.00 0.00 63 1007.6
20260505005004 72 174 2.6 7.8 0.00 0.00 0.00 62 1007.9
20260505004003 72 179 3.5 8.7 0.00 0.00 0.00 61 1008.0
20260505003003 72 190 4.3 9.6 0.00 0.00 0.00 60 1007.9
20260505002003 73 186 4.3 13.0 0.00 0.00 0.00 60 1007.4
20260505001003 73 185 3.5 9.6 0.00 0.00 0.00 60 1007.5
20260505000003 73 182 3.5 13.0 0.00 0.00 0.00 59 1007.6
20260504235003 74 176 3.5 7.8 0.00 0.00 0.00 58 1007.8
20260504234003 74 181 3.5 9.6 0.00 0.00 0.00 58 1008.1
20260504233003 75 181 3.5 12.2 0.00 0.00 0.00 57 1008.4
20260504232003 76 182 4.3 11.3 0.00 0.00 0.00 55 1008.3
20260504231217 76 182 5.2 13.9 0.00 0.00 0.00 55 1008.1
20260504230003 77 196 6.1 15.6 0.00 0.00 0.00 53 1008.5
20260504225003 77 186 6.1 13.9 0.00 0.00 0.00 52 1008.6
20260504224217 78 185 5.2 13.0 0.00 0.00 0.00 52 1008.8
20260504223003 79 184 5.2 15.6 0.00 0.00 0.00 51 1009.1
20260504222003 80 206 4.3 13.0 0.00 0.00 0.00 50 1008.6
20260504221003 79 181 5.2 12.2 0.00 0.00 0.00 50 1008.4
20260504220003 80 201 5.2 13.9 0.00 0.00 0.00 50 1008.4
20260504215003 80 185 5.2 15.6 0.00 0.00 0.00 50 1008.7
20260504214003 78 188 5.2 13.0 0.00 0.00 0.00 52 1008.9
20260504213003 80 196 6.1 22.6 0.00 0.00 0.00 49 1009.3
20260504212003 80 191 7.0 20.9 0.00 0.00 0.00 49 1008.9
20260504211003 80 184 6.1 15.6 0.00 0.00 0.00 49 1008.6
20260504210004 81 194 5.2 20.0 0.00 0.00 0.00 49 1009.1
20260504205003 80 200 7.8 19.1 0.00 0.00 0.00 49 1009.1
20260504204003 79 198 6.1 13.0 0.00 0.00 0.00 51 1009.1
20260504203003 80 191 7.0 18.2 0.00 0.00 0.00 49 1009.3
20260504202003 80 192 7.0 16.5 0.00 0.00 0.00 49 1009.6
20260504201003 80 181 7.0 18.2 0.00 0.00 0.00 50 1009.7
20260504200218 80 185 5.2 14.8 0.00 0.00 0.00 51 1009.9
20260504195003 79 199 6.1 16.5 0.00 0.00 0.00 52 1010.0
20260504194003 79 190 5.2 14.8 0.00 0.00 0.00 51 1010.0
20260504193218 79 194 7.0 19.1 0.00 0.00 0.00 49 1010.4
20260504192003 79 188 5.2 13.0 0.00 0.00 0.00 50 1010.8
20260504191003 79 181 7.0 16.5 0.00 0.00 0.00 51 1011.4
20260504190004 80 194 7.0 14.8 0.00 0.00 0.00 51 1011.0
20260504185004 79 202 6.1 19.1 0.00 0.00 0.00 50 1011.2
20260504184218 79 187 7.0 18.2 0.00 0.00 0.00 48 1011.3
20260504183003 80 191 6.1 18.2 0.00 0.00 0.00 50 1011.1
20260504182003 79 226 6.1 16.5 0.00 0.00 0.00 51 1011.2
20260504181003 79 206 7.0 15.6 0.00 0.00 0.00 49 1011.3
20260504180003 78 187 7.0 16.5 0.00 0.00 0.00 51 1011.5
20260504175217 79 192 6.1 19.1 0.00 0.00 0.00 50 1011.6
20260504174217 79 188 6.1 20.9 0.00 0.00 0.00 49 1011.8
20260504173217 79 200 7.0 21.7 0.00 0.00 0.00 50 1011.9
20260504172003 79 188 7.8 20.0 0.00 0.00 0.00 49 1012.1
20260504171003 79 212 5.2 18.2 0.00 0.00 0.00 49 1012.4
20260504151003 75 189 5.2 12.2 0.00 0.00 0.00 57 1013.1
20260504141003 70 197 2.6 8.7 0.00 0.00 0.00 66 1013.2
20260504130217 64 186 1.7 3.5 0.00 0.00 0.00 76 1013.2